Location: GMARS
(34.2910°N, 116.3838°W)
Time: 12:44:03
(UTC-08:00)

Envisat - Pass Details

Date: 29 October 2019
Orbit: 764 x 766 km, 98.1° (Epoch: 21 November)

Event Time Altitude Azimuth Distance (km) Brightness Sun altitude
Rises 18:13:34 0° 144° (SE) 3,217 6.0 -4.5°
Reaches altitude 10° 18:16:01 10° 136° (SE) 2,294 5.2 -5.0°
Maximum altitude 18:20:35 35° 71° (ENE) 1,210 3.6 -5.9°
Drops below altitude 10° 18:25:10 10° 7° (N) 2,306 5.3 -6.8°
Sets 18:27:38 0° 359° (N) 3,235 6.1 -7.3°
